Time,TemperatureF,DewpointF,PressureIn,WindDirection,WindDirectionDegrees,WindSpeedMPH,WindSpeedGustMPH,Humidity,HourlyPrecipIn,Conditions,Clouds,dailyrainin,SoftwareType,DateUTC
2013-02-25 00:02:00,38.9,36.0,29.99,WNW,287,5.0,8.0,88,0.04,,,0.00,weatherlink.com 1.10,2013-02-24 23:02:00,
2013-02-25 00:17:00,39.1,36.0,29.98,WNW,292,3.0,8.0,87,0.02,,,0.00,weatherlink.com 1.10,2013-02-24 23:17:00,
2013-02-25 00:32:00,39.2,36.0,29.98,WNW,302,5.0,7.0,87,0.02,,,0.00,weatherlink.com 1.10,2013-02-24 23:32:00,
2013-02-25 00:47:00,39.1,36.0,29.98,NW,323,2.0,6.0,87,0.02,,,0.00,weatherlink.com 1.10,2013-02-24 23:47:00,
2013-02-25 01:02:00,38.3,35.0,29.98,SSE,149,4.0,6.0,87,0.00,,,0.00,weatherlink.com 1.10,2013-02-25 00:02:00,
2013-02-25 01:17:00,37.3,34.0,29.98,SSW,198,4.0,5.0,89,0.00,,,0.00,weatherlink.com 1.10,2013-02-25 00:17:00,
2013-02-25 01:32:00,36.8,35.0,29.99,SSW,207,4.0,4.0,91,0.00,,,0.00,weatherlink.com 1.10,2013-02-25 00:32:00,
2013-02-25 01:47:00,37.4,35.0,30.00,SSW,197,7.0,10.0,92,0.00,,,0.00,weatherlink.com 1.10,2013-02-25 00:47:00,
2013-02-25 02:02:00,38.6,36.0,30.01,SSW,212,8.0,12.0,91,0.00,,,0.00,weatherlink.com 1.10,2013-02-25 01:02:00,
2013-02-25 02:17:00,39.2,37.0,30.01,SW,235,6.0,16.0,90,0.00,,,0.00,weatherlink.com 1.10,2013-02-25 01:17:00,
2013-02-25 02:32:00,38.3,35.0,30.02,SW,218,10.0,17.0,89,0.00,,,0.00,weatherlink.com 1.10,2013-02-25 01:32:00,
2013-02-25 02:47:00,37.5,35.0,30.02,SW,227,8.0,19.0,90,0.00,,,0.00,weatherlink.com 1.10,2013-02-25 01:47:00,
2013-02-25 03:02:00,37.0,35.0,30.02,SW,236,15.0,17.0,91,0.00,,,0.00,weatherlink.com 1.10,2013-02-25 02:02:00,
2013-02-25 03:17:00,36.9,35.0,30.01,WSW,245,11.0,15.0,92,0.00,,,0.00,weatherlink.com 1.10,2013-02-25 02:17:00,
2013-02-25 03:32:00,37.1,35.0,30.01,WSW,255,7.0,9.0,92,0.00,,,0.00,weatherlink.com 1.10,2013-02-25 02:32:00,
2013-02-25 03:47:00,37.2,35.0,30.02,SSE,167,2.0,4.0,92,0.00,,,0.00,weatherlink.com 1.10,2013-02-25 02:47:00,
2013-02-25 04:02:00,37.2,35.0,30.01,South,184,4.0,5.0,92,0.00,,,0.00,weatherlink.com 1.10,2013-02-25 03:02:00,
2013-02-25 04:17:00,37.2,35.0,30.02,SSW,194,4.0,6.0,92,0.00,,,0.00,weatherlink.com 1.10,2013-02-25 03:17:00,
2013-02-25 04:32:00,37.6,36.0,30.02,South,187,4.0,7.0,92,0.00,,,0.00,weatherlink.com 1.10,2013-02-25 03:32:00,
2013-02-25 04:47:00,37.9,36.0,30.02,SSW,210,2.0,5.0,92,0.00,,,0.00,weatherlink.com 1.10,2013-02-25 03:47:00,
2013-02-25 05:02:00,38.2,36.0,30.01,WSW,243,2.0,3.0,91,0.00,,,0.00,weatherlink.com 1.10,2013-02-25 04:02:00,
2013-02-25 05:17:00,38.3,36.0,30.01,SW,226,1.0,2.0,91,0.00,,,0.00,weatherlink.com 1.10,2013-02-25 04:17:00,
2013-02-25 05:32:00,38.3,36.0,30.00,SSW,205,2.0,3.0,90,0.00,,,0.00,weatherlink.com 1.10,2013-02-25 04:32:00,
2013-02-25 05:47:00,37.9,35.0,30.01,South,172,3.0,4.0,90,0.00,,,0.00,weatherlink.com 1.10,2013-02-25 04:47:00,
2013-02-25 06:02:00,38.1,36.0,30.00,SW,216,1.0,3.0,90,0.00,,,0.00,weatherlink.com 1.10,2013-02-25 05:02:00,
2013-02-25 06:17:00,37.9,35.0,30.01,SSE,153,2.0,2.0,90,0.00,,,0.00,weatherlink.com 1.10,2013-02-25 05:17:00,
2013-02-25 06:32:00,37.5,35.0,30.01,SSW,208,2.0,5.0,90,0.00,,,0.00,weatherlink.com 1.10,2013-02-25 05:32:00,
2013-02-25 06:47:00,38.3,35.0,30.01,SW,218,3.0,5.0,88,0.00,,,0.00,weatherlink.com 1.10,2013-02-25 05:47:00,
2013-02-25 07:02:00,39.3,36.0,30.02,SSW,212,5.0,10.0,86,0.00,,,0.00,weatherlink.com 1.10,2013-02-25 06:02:00,
2013-02-25 07:17:00,39.0,35.0,30.03,ESE,110,1.0,6.0,86,0.00,,,0.00,weatherlink.com 1.10,2013-02-25 06:17:00,
2013-02-25 07:32:00,38.8,36.0,30.03,East,80,1.0,2.0,88,0.00,,,0.00,weatherlink.com 1.10,2013-02-25 06:32:00,
2013-02-25 07:47:00,38.5,36.0,30.04,ESE,118,2.0,4.0,90,0.00,,,0.00,weatherlink.com 1.10,2013-02-25 06:47:00,
2013-02-25 08:03:00,38.9,36.0,30.04,SE,136,4.0,5.0,90,0.00,,,0.00,weatherlink.com 1.10,2013-02-25 07:03:00,
2013-02-25 08:18:00,38.9,36.0,30.04,SE,131,2.0,5.0,90,0.00,,,0.00,weatherlink.com 1.10,2013-02-25 07:18:00,
2013-02-25 08:33:00,39.0,37.0,30.05,ESE,110,3.0,4.0,91,0.00,,,0.00,weatherlink.com 1.10,2013-02-25 07:33:00,
2013-02-25 08:48:00,39.2,37.0,30.05,East,89,2.0,3.0,91,0.00,,,0.00,weatherlink.com 1.10,2013-02-25 07:48:00,
2013-02-25 09:02:00,39.3,37.0,30.05,ENE,70,0.0,4.0,92,0.01,,,0.01,weatherlink.com 1.10,2013-02-25 08:02:00,
2013-02-25 09:17:00,40.0,38.0,30.06,SW,236,2.0,2.0,91,0.01,,,0.01,weatherlink.com 1.10,2013-02-25 08:17:00,
2013-02-25 09:32:00,40.6,37.0,30.07,SW,233,11.0,14.0,88,0.01,,,0.01,weatherlink.com 1.10,2013-02-25 08:32:00,
2013-02-25 09:47:00,40.6,37.0,30.07,SW,214,3.0,9.0,87,0.01,,,0.01,weatherlink.com 1.10,2013-02-25 08:47:00,
2013-02-25 10:02:00,40.4,37.0,30.07,SSW,211,5.0,7.0,86,0.00,,,0.01,weatherlink.com 1.10,2013-02-25 09:02:00,
2013-02-25 10:17:00,40.6,37.0,30.08,SW,214,8.0,11.0,87,0.00,,,0.01,weatherlink.com 1.10,2013-02-25 09:17:00,
2013-02-25 10:32:00,39.8,37.0,30.09,SW,227,10.0,13.0,89,0.00,,,0.01,weatherlink.com 1.10,2013-02-25 09:32:00,
2013-02-25 10:47:00,39.4,37.0,30.09,SW,232,7.0,12.0,90,0.00,,,0.01,weatherlink.com 1.10,2013-02-25 09:47:00,
2013-02-25 11:02:00,39.7,37.0,30.09,SW,228,2.0,12.0,90,0.00,,,0.01,weatherlink.com 1.10,2013-02-25 10:02:00,
2013-02-25 11:17:00,40.6,38.0,30.09,SW,234,9.0,-999.0,90,-99.99,,,0.01,weatherlink.com 1.10,2013-02-25 10:17:00,
2013-02-25 11:32:00,41.5,39.0,30.09,SW,229,5.0,10.0,89,0.00,,,0.01,weatherlink.com 1.10,2013-02-25 10:32:00,
2013-02-25 11:47:00,41.7,38.0,30.09,SSW,201,4.0,11.0,87,0.00,,,0.01,weatherlink.com 1.10,2013-02-25 10:47:00,
2013-02-25 12:02:00,41.7,38.0,30.10,SW,215,2.0,12.0,87,0.00,,,0.01,weatherlink.com 1.10,2013-02-25 11:02:00,
2013-02-25 12:17:00,41.3,37.0,30.10,SW,231,9.0,11.0,86,0.00,,,0.01,weatherlink.com 1.10,2013-02-25 11:17:00,
2013-02-25 12:47:00,43.1,39.0,30.09,SW,219,3.0,7.0,85,0.00,,,0.01,weatherlink.com 1.10,2013-02-25 11:47:00,
2013-02-25 13:02:00,41.9,38.0,30.09,South,169,7.0,10.0,87,0.00,,,0.01,weatherlink.com 1.10,2013-02-25 12:02:00,
2013-02-25 13:17:00,41.7,38.0,30.09,South,169,6.0,8.0,88,0.00,,,0.01,weatherlink.com 1.10,2013-02-25 12:17:00,
2013-02-25 13:32:00,41.2,38.0,30.08,SE,137,7.0,12.0,89,0.00,,,0.01,weatherlink.com 1.10,2013-02-25 12:32:00,
2013-02-25 13:47:00,40.9,38.0,30.09,SSE,153,8.0,12.0,89,0.00,,,0.01,weatherlink.com 1.10,2013-02-25 12:47:00,
2013-02-25 14:02:00,40.9,38.0,30.09,South,180,7.0,11.0,89,0.00,,,0.01,weatherlink.com 1.10,2013-02-25 13:02:00,
2013-02-25 14:17:00,41.2,39.0,30.08,South,184,8.0,11.0,90,0.00,,,0.01,weatherlink.com 1.10,2013-02-25 13:17:00,
2013-02-25 14:32:00,41.2,38.0,30.08,SSE,156,6.0,9.0,88,0.00,,,0.01,weatherlink.com 1.10,2013-02-25 13:32:00,
2013-02-25 14:48:00,41.7,38.0,30.07,SW,233,3.0,5.0,88,0.00,,,0.01,weatherlink.com 1.10,2013-02-25 13:48:00,
2013-02-25 15:03:00,42.3,38.0,30.08,South,186,3.0,8.0,85,0.00,,,0.01,weatherlink.com 1.10,2013-02-25 14:03:00,
2013-02-25 15:17:00,42.7,38.0,30.08,SSW,210,1.0,5.0,83,0.00,,,0.01,weatherlink.com 1.10,2013-02-25 14:17:00,
2013-02-25 15:33:00,42.5,37.0,30.07,SE,125,2.0,6.0,82,0.00,,,0.01,weatherlink.com 1.10,2013-02-25 14:33:00,
2013-02-25 15:48:00,42.6,38.0,30.08,East,96,2.0,4.0,82,0.00,,,0.01,weatherlink.com 1.10,2013-02-25 14:48:00,
2013-02-25 16:03:00,43.1,38.0,30.08,NE,54,4.0,4.0,81,0.00,,,0.01,weatherlink.com 1.10,2013-02-25 15:03:00,
2013-02-25 16:18:00,43.1,36.0,30.08,ENE,61,2.0,6.0,77,0.00,,,0.01,weatherlink.com 1.10,2013-02-25 15:18:00,
2013-02-25 16:33:00,43.3,37.0,30.08,NE,37,2.0,4.0,78,0.00,,,0.01,weatherlink.com 1.10,2013-02-25 15:33:00,
2013-02-25 16:48:00,43.6,37.0,30.08,NNW,338,1.0,4.0,77,0.00,,,0.01,weatherlink.com 1.10,2013-02-25 15:48:00,
2013-02-25 17:03:00,43.6,37.0,30.08,NNW,333,1.0,4.0,77,0.00,,,0.01,weatherlink.com 1.10,2013-02-25 16:03:00,
2013-02-25 17:18:00,43.7,37.0,30.08,NW,312,2.0,3.0,76,0.00,,,0.01,weatherlink.com 1.10,2013-02-25 16:18:00,
2013-02-25 17:33:00,43.6,37.0,30.08,WNW,300,1.0,4.0,76,0.00,,,0.01,weatherlink.com 1.10,2013-02-25 16:33:00,
2013-02-25 17:48:00,43.3,36.0,30.09,WNW,285,2.0,4.0,76,0.00,,,0.01,weatherlink.com 1.10,2013-02-25 16:48:00,
2013-02-25 18:03:00,43.0,37.0,30.09,NW,314,1.0,6.0,80,0.00,,,0.01,weatherlink.com 1.10,2013-02-25 17:03:00,
2013-02-25 18:18:00,42.9,38.0,30.10,WNW,297,2.0,3.0,82,0.00,,,0.01,weatherlink.com 1.10,2013-02-25 17:18:00,
2013-02-25 18:33:00,42.6,38.0,30.10,NNW,333,1.0,3.0,83,0.00,,,0.01,weatherlink.com 1.10,2013-02-25 17:33:00,
2013-02-25 18:48:00,42.1,38.0,30.10,NNW,329,1.0,2.0,84,0.00,,,0.01,weatherlink.com 1.10,2013-02-25 17:48:00,
2013-02-25 19:03:00,41.6,37.0,30.10,NE,37,1.0,3.0,85,0.00,,,0.01,weatherlink.com 1.10,2013-02-25 18:03:00,
2013-02-25 19:18:00,41.4,38.0,30.10,NNE,18,2.0,3.0,86,0.00,,,0.01,weatherlink.com 1.10,2013-02-25 18:18:00,
2013-02-25 19:33:00,40.7,38.0,30.11,North,354,2.0,5.0,88,0.00,,,0.01,weatherlink.com 1.10,2013-02-25 18:33:00,
2013-02-25 19:48:00,40.2,37.0,30.11,NNW,332,2.0,2.0,89,0.00,,,0.01,weatherlink.com 1.10,2013-02-25 18:48:00,
2013-02-25 20:03:00,39.6,37.0,30.11,NNW,347,1.0,3.0,89,0.00,,,0.01,weatherlink.com 1.10,2013-02-25 19:03:00,
2013-02-25 20:18:00,39.1,36.0,30.11,WNW,294,0.0,1.0,89,0.00,,,0.01,weatherlink.com 1.10,2013-02-25 19:18:00,
2013-02-25 20:33:00,38.7,36.0,30.11,North,356,2.0,2.0,90,0.00,,,0.01,weatherlink.com 1.10,2013-02-25 19:33:00,
2013-02-25 20:48:00,38.4,36.0,30.12,NNE,19,2.0,3.0,89,0.00,,,0.01,weatherlink.com 1.10,2013-02-25 19:48:00,
2013-02-25 21:03:00,38.1,36.0,30.12,NNW,335,1.0,3.0,90,0.00,,,0.01,weatherlink.com 1.10,2013-02-25 20:03:00,
2013-02-25 21:18:00,38.0,35.0,30.12,East,95,1.0,1.0,89,0.00,,,0.01,weatherlink.com 1.10,2013-02-25 20:18:00,
2013-02-25 21:33:00,37.1,35.0,30.13,East,99,0.0,1.0,90,0.00,,,0.01,weatherlink.com 1.10,2013-02-25 20:33:00,
2013-02-25 21:48:00,36.7,34.0,30.13,East,98,0.0,0.0,91,0.00,,,0.01,weatherlink.com 1.10,2013-02-25 20:48:00,
2013-02-25 22:03:00,36.5,34.0,30.13,WSW,242,0.0,0.0,92,0.00,,,0.01,weatherlink.com 1.10,2013-02-25 21:03:00,
2013-02-25 22:18:00,36.7,35.0,30.14,WSW,242,0.0,0.0,93,0.00,,,0.01,weatherlink.com 1.10,2013-02-25 21:18:00,
2013-02-25 22:33:00,36.9,35.0,30.13,WSW,241,0.0,0.0,93,0.00,,,0.01,weatherlink.com 1.10,2013-02-25 21:33:00,
2013-02-25 22:48:00,36.9,35.0,30.13,ENE,64,0.0,0.0,93,0.00,,,0.01,weatherlink.com 1.10,2013-02-25 21:48:00,
2013-02-25 23:18:00,36.0,34.0,30.13,South,176,1.0,1.0,93,0.00,,,0.01,weatherlink.com 1.10,2013-02-25 22:18:00,
2013-02-25 23:33:00,36.0,35.0,30.13,West,273,0.0,5.0,94,0.00,,,0.01,weatherlink.com 1.10,2013-02-25 22:33:00,
2013-02-25 23:48:00,36.8,35.0,30.13,West,265,0.0,2.0,94,0.00,,,0.01,weatherlink.com 1.10,2013-02-25 22:48:00,